Weather in Shenzhen

China     22°32′46″N   114°03′16″E
temp.,
°C
wind,
m/s
gust,
m/s
humid.,
%
clouds,
%
prec.,
mm/h
press.,
hPa
HPBL,
m
24 july, sat
sat2423:00+29ssw368132 0.8 999175
02:00+28nne128377 1.9 99890
05:00+28ssw118181 0.4 99832
08:00+29nnw11772 1.4 99866
11:00+32nw23622 1.8 999860
14:00+34wsw455551 1.8 9971268
17:00+32ssw3463100 0.0 996206
20:00+30s467572 0.8 997193
25 july, sun
sun2523:00+29sw467974 1.1 999218
02:00+28wsw1181100 2.4 99945
05:00+28w238057 0.6 999104
08:00+29w12755 0.6 1000240
11:00+32w11593 0.0 1000864
14:00+33sw44599 0.1 998968
17:00+31ssw666773 0.1 998467
20:00+29sw688052 0.2 999380
26 july, mon
mon2623:00+29sw698095 0.6 1000375
02:00+29sw588125 1.8 998376
05:00+29sw478216 0.7 997342
08:00+30wsw23737 1.3 998348
11:00+32sw336497 0.2 998724
14:00+33ssw4459100 0.2 996984
17:00+31s457051 0.0 994275
20:00+30s467797 0.1 995261
27 july, tue
tue2723:00+30sw477768 0.6 996236
02:00+29wsw358086 1.6 995133
05:00+29wsw2381100 0.6 99575
08:00+30w357445 0.6 996284
11:00+32w346294 0.0 996765
14:00+34sw455571 0.0 9931154
17:00+32ssw686975 0.0 992351
20:00+30ssw7117799 0.3 994336
28 july, wed
wed2823:00+30sw597866 2.2 995279
02:00+29sw697847 2.8 995283
05:00+29sw368087 1.4 995173
08:00+30sw2375100 1.8 996201
11:00+32sw2363100 0.1 997653
14:00+33ssw5461100 0.1 995863
17:00+31s677483 0.0 995419
20:00+29ssw6982100 0.0 996404